Torna al catalogo

GORIZONT 14

AttivoComunicazioniGEO
NORAD 17969·PAYLOAD·🇷🇺 Russia

Lanciato May 11, 1987 da Baikonur Cosmodrome

Loading…

TLE

AggiornatoSource: Space-Track

Epoca: Sep 14, 2026, 12:52 UTC

1 17969U 87040A   26257.53652558 -.00000191  00000-0  00000-0 0  9994
2 17969  10.5815 319.1740 0028878 218.1323 174.0430  0.97660651120734

Traccia GORIZONT 14 in tempo reale con AllMySat

Download on the App Store